TimeCEST,TemperatureF,Dew PointF,Humidity,Sea Level PressureIn,VisibilityMPH,Wind Direction,Wind SpeedMPH,Gust SpeedMPH,PrecipitationIn,Events,Conditions,WindDirDegrees,DateUTC
12:25 AM,53.6,44.6,72,30.06,6.2,NW,3.5,-,N/A,,Unknown,320,2013-05-06 22:25:00
12:55 AM,50.0,44.6,82,30.06,5.6,West,5.8,-,N/A,,Haze,260,2013-05-06 22:55:00
1:25 AM,51.8,44.6,76,30.06,5.6,NW,3.5,-,N/A,,Haze,310,2013-05-06 23:25:00
1:55 AM,51.8,44.6,76,30.04,6.2,North,3.5,-,N/A,,Unknown,350,2013-05-06 23:55:00
2:25 AM,51.8,44.6,76,30.04,6.2,North,3.5,-,N/A,,Unknown,360,2013-05-07 00:25:00
2:55 AM,51.8,44.6,76,30.04,6.2,NNW,4.6,-,N/A,,Unknown,340,2013-05-07 00:55:00
3:25 AM,51.8,44.6,76,30.01,5.6,NNW,3.5,-,N/A,,Haze,340,2013-05-07 01:25:00
3:55 AM,50.0,44.6,82,30.01,5.0,North,3.5,-,N/A,,Haze,350,2013-05-07 01:55:00
4:25 AM,50.0,44.6,82,30.01,5.0,NNW,2.3,-,N/A,,Haze,340,2013-05-07 02:25:00
4:29 AM,50.0,44.6,82,30.01,4.3,NNW,2.3,-,N/A,,Haze,330,2013-05-07 02:29:00
4:35 AM,50.0,44.6,82,30.01,5.0,NNW,2.3,-,N/A,,Haze,330,2013-05-07 02:35:00
4:41 AM,50.0,44.6,82,30.01,4.3,North,2.3,-,N/A,,Haze,350,2013-05-07 02:41:00
4:44 AM,50.0,44.6,82,30.01,5.0,North,1.2,-,N/A,,Mist,350,2013-05-07 02:44:00
4:49 AM,50.0,44.6,82,30.01,4.3,North,2.3,-,N/A,,Mist,350,2013-05-07 02:49:00
4:55 AM,50.0,44.6,82,30.01,4.3,North,2.3,-,N/A,,Mist,350,2013-05-07 02:55:00
5:25 AM,48.2,44.6,87,30.01,3.7,NNE,2.3,-,N/A,,Mist,30,2013-05-07 03:25:00
5:55 AM,50.0,44.6,82,30.01,3.1,NE,3.5,-,N/A,,Mist,40,2013-05-07 03:55:00
6:25 AM,50.0,46.4,87,30.01,3.7,NE,4.6,-,N/A,,Partly Cloudy,40,2013-05-07 04:25:00
6:55 AM,51.8,46.4,82,30.01,3.7,NE,5.8,-,N/A,,Overcast,40,2013-05-07 04:55:00
7:25 AM,51.8,48.2,88,30.01,4.3,NE,5.8,-,N/A,,Overcast,40,2013-05-07 05:25:00
7:55 AM,53.6,48.2,82,30.01,4.3,NNE,3.5,-,N/A,,Overcast,20,2013-05-07 05:55:00
8:18 AM,53.6,48.2,82,30.01,5.0,NE,4.6,-,N/A,,Overcast,50,2013-05-07 06:18:00
8:25 AM,53.6,50.0,88,30.01,4.3,NE,4.6,-,N/A,,Overcast,40,2013-05-07 06:25:00
8:30 AM,53.6,50.0,88,30.01,5.0,NE,4.6,-,N/A,,Overcast,40,2013-05-07 06:30:00
8:32 AM,55.4,50.0,82,30.01,4.3,NE,4.6,-,N/A,,Overcast,40,2013-05-07 06:32:00
8:35 AM,55.4,50.0,82,30.01,5.0,NE,3.5,-,N/A,,Overcast,50,2013-05-07 06:35:00
8:51 AM,55.4,50.0,82,30.01,5.0,ENE,5.8,-,N/A,,Overcast,60,2013-05-07 06:51:00
8:55 AM,55.4,50.0,82,30.01,5.0,ENE,5.8,-,N/A,,Overcast,60,2013-05-07 06:55:00
9:25 AM,57.2,50.0,77,30.01,5.0,East,5.8,-,N/A,,Overcast,90,2013-05-07 07:25:00
9:55 AM,59.0,50.0,72,30.01,5.6,ENE,2.3,-,N/A,,Haze,70,2013-05-07 07:55:00
10:25 AM,60.8,51.8,72,30.01,6.2,ENE,1.2,-,N/A,,Overcast,60,2013-05-07 08:25:00
10:29 AM,60.8,51.8,72,30.01,4.3,East,1.2,-,N/A,,Haze,90,2013-05-07 08:29:00
10:33 AM,60.8,51.8,72,30.01,5.6,NNE,1.2,-,N/A,,Haze,30,2013-05-07 08:33:00
10:39 AM,60.8,51.8,72,30.01,4.3,North,1.2,-,N/A,,Haze,10,2013-05-07 08:39:00
10:40 AM,62.6,51.8,68,30.01,6.2,NNE,1.2,-,N/A,,Haze,30,2013-05-07 08:40:00
10:55 AM,64.4,51.8,64,30.01,6.2,NNE,1.2,-,N/A,,Overcast,20,2013-05-07 08:55:00
11:19 AM,66.2,51.8,60,30.01,4.3,East,2.3,-,N/A,,Haze,80,2013-05-07 09:19:00
11:25 AM,66.2,51.8,60,30.01,6.2,East,2.3,-,N/A,,Partly Cloudy,100,2013-05-07 09:25:00
11:38 AM,66.2,51.8,60,30.01,6.2,East,4.6,-,N/A,,Scattered Clouds,80,2013-05-07 09:38:00
11:55 AM,66.2,53.6,64,30.01,6.2,ESE,2.3,-,N/A,,Mostly Cloudy,110,2013-05-07 09:55:00
12:25 PM,69.8,53.6,56,29.98,6.2,NW,3.5,-,N/A,,Partly Cloudy,310,2013-05-07 10:25:00
12:46 PM,69.8,55.4,60,29.98,6.2,SW,4.6,-,N/A,,Partly Cloudy,230,2013-05-07 10:46:00
12:51 PM,71.6,55.4,57,29.98,6.2,West,4.6,-,N/A,,Scattered Clouds,260,2013-05-07 10:51:00
12:55 PM,71.6,55.4,57,29.98,6.2,West,4.6,-,N/A,,Scattered Clouds,280,2013-05-07 10:55:00
1:25 PM,71.6,55.4,57,29.98,6.2,WNW,8.1,-,N/A,,Mostly Cloudy,290,2013-05-07 11:25:00
1:34 PM,69.8,55.4,60,29.98,6.2,WNW,9.2,-,N/A,,Scattered Clouds,300,2013-05-07 11:34:00
1:55 PM,73.4,53.6,50,29.95,6.2,WSW,5.8,-,N/A,,Partly Cloudy,240,2013-05-07 11:55:00
2:11 PM,73.4,48.2,41,29.95,6.2,NNE,3.5,15.0,N/A,,Mostly Cloudy,30,2013-05-07 12:11:00
2:25 PM,75.2,46.4,36,29.95,6.2,ENE,11.5,-,N/A,,Mostly Cloudy,70,2013-05-07 12:25:00
2:39 PM,77.0,48.2,36,29.95,6.2,NNE,11.5,-,N/A,,Mostly Cloudy,30,2013-05-07 12:39:00
2:55 PM,77.0,46.4,34,29.95,6.2,ENE,13.8,-,N/A,,Mostly Cloudy,70,2013-05-07 12:55:00
3:25 PM,71.6,46.4,41,29.95,6.2,ENE,13.8,-,N/A,,Overcast,60,2013-05-07 13:25:00
3:27 PM,71.6,46.4,41,29.95,6.2,NE,13.8,-,N/A,,Overcast,50,2013-05-07 13:27:00
3:55 PM,75.2,48.2,38,29.92,6.2,NNE,5.8,-,N/A,,Mostly Cloudy,30,2013-05-07 13:55:00
4:20 PM,73.4,50.0,44,29.92,6.2,NE,13.8,-,N/A,Thunderstorm,Thunderstorm,50,2013-05-07 14:20:00
4:25 PM,73.4,50.0,44,29.92,6.2,NE,12.7,-,N/A,Thunderstorm,Thunderstorm,50,2013-05-07 14:25:00
4:27 PM,73.4,53.6,50,29.92,6.2,NE,15.0,28.8,N/A,,Overcast,50,2013-05-07 14:27:00
4:55 PM,68.0,51.8,56,29.92,6.2,ENE,18.4,-,N/A,Thunderstorm,Thunderstorm,70,2013-05-07 14:55:00
5:25 PM,68.0,55.4,64,29.92,6.2,NNE,9.2,-,N/A,,Overcast,30,2013-05-07 15:25:00
5:55 PM,68.0,55.4,64,29.92,6.2,NE,9.2,-,N/A,,Overcast,40,2013-05-07 15:55:00
6:25 PM,68.0,55.4,64,29.92,6.2,ENE,12.7,-,N/A,,Overcast,70,2013-05-07 16:25:00
6:55 PM,68.0,55.4,64,29.92,6.2,ENE,11.5,-,N/A,,Overcast,70,2013-05-07 16:55:00
7:25 PM,66.2,53.6,64,29.92,6.2,East,11.5,-,N/A,,Mostly Cloudy,80,2013-05-07 17:25:00
7:55 PM,66.2,53.6,64,29.92,6.2,ENE,9.2,-,N/A,,Mostly Cloudy,60,2013-05-07 17:55:00
8:25 PM,64.4,53.6,68,29.92,6.2,ENE,8.1,-,N/A,,Mostly Cloudy,60,2013-05-07 18:25:00
8:55 PM,64.4,53.6,68,29.92,6.2,East,4.6,-,N/A,,Overcast,80,2013-05-07 18:55:00
9:25 PM,62.6,53.6,72,29.92,6.2,ENE,5.8,-,N/A,,Overcast,70,2013-05-07 19:25:00
9:55 PM,60.8,51.8,72,29.92,6.2,NE,5.8,-,N/A,,Mostly Cloudy,50,2013-05-07 19:55:00
10:25 PM,59.0,51.8,77,29.92,6.2,West,1.2,-,N/A,,Mostly Cloudy,270,2013-05-07 20:25:00
10:55 PM,59.0,53.6,82,29.92,6.2,WSW,2.3,-,N/A,,Overcast,240,2013-05-07 20:55:00
11:25 PM,57.2,53.6,88,29.89,6.2,Calm,Calm,-,N/A,,Overcast,0,2013-05-07 21:25:00
11:37 PM,57.2,51.8,82,29.89,6.2,Calm,Calm,-,N/A,,Overcast,0,2013-05-07 21:37:00
11:38 PM,57.2,51.8,82,29.89,6.2,Calm,Calm,-,N/A,,Overcast,0,2013-05-07 21:38:00
11:45 PM,57.2,51.8,82,29.89,6.2,Calm,Calm,-,N/A,,Overcast,0,2013-05-07 21:45:00
11:55 PM,57.2,51.8,82,29.89,6.2,Calm,Calm,-,N/A,,Overcast,0,2013-05-07 21:55:00